Preview of NWS' New Version of Forecast
This preview is not operational and should not be used for support decisions.

Regional Weather Roundup (RWR)

Issued by National Weather Service (NWS)

                            
000
ASCA42 TJSJ 221510
RWRPR 
PUERTO RICO/U.S. VIRGIN ISLANDS HOURLY WEATHER ROUNDUP
NATIONAL WEATHER SERVICE SAN JUAN PR
1100 AM AST MON APR 22 2019

PRZ001>002-007>008-010-221600-
PUERTO RICO
  
CITY           SKY/WX    TMP DP  RH WIND       PRES   REMARKS
SAN JUAN LMM   MOSUNNY   81  66  61 E17       30.02F                  
AGUADILLA      MOSUNNY   81  70  69 E18G25    30.04S                  
CEIBA          PTSUNNY   84  68  58 MISG      30.04S                  
$$

VIZ001>002-221600-
U.S. VIRGIN ISLANDS
  
CITY           SKY/WX    TMP DP  RH WIND       PRES   REMARKS
CHARLOTTE AMA  MOSUNNY   84  66  54 E12G22    30.01S                  
CHRISTIANSTED  PTSUNNY   81  68  65 E17       30.02F                  
$$

HOURLY WEATHER ROUNDUP FOR THE NEWS MEDIA
  
CITY           SKY/WX    TMP DP  RH WIND       PRES   REMARKS
ORLANDO        FAIR      74  44  34 N6        30.20S                  
NEW YORK       CLOUDY    62  53  72 N14       30.03F                  
NEWARK         CLOUDY    63  51  65 N15       30.03F                  
CHICAGO        PTSUNNY   69  45  41 S15G22    30.02F                  
HARTFORD       CLOUDY    59  53  80 N13G21    30.02F                  
BOSTON         CLOUDY    56  50  80 NE14      30.09F                  
DALLAS         CLOUDY    69  60  73 S10G17    30.05R                  
PHILADELPHIA   PTSUNNY   64  50  60 N15       30.07                   
LOS ANGELES    MOSUNNY   59  53  80 CALM      30.01S                  
WASHINGTON DC  PTSUNNY   59  44  57 NW14      30.18R